Regional Weather Roundup
Issued by NWS

Home | Current Version | Previous Version | Graphics & Text | Print | Product List | Glossary On
Versions: 1 2 3 4 5 6 7 8 9 10 11 12 13 14 15 16 17 18 19 20 21 22 23 24 25 26 27 28 29 30 31 32 33 34 35 36 37 38 39 40 41 42 43 44 45 46 47 48 49 50
000
ASUS43 KMPX 180701
RWRMN
WEATHER ROUNDUP FOR MINNESOTA
NATIONAL WEATHER SERVICE TWIN CITIES/CHANHASSEN MN
200 AM CDT WED OCT 18 2017


NOTE: "FAIR" INDICATES FEW OR NO CLOUDS BELOW 12,000 FEET WITH NO
SIGNIFICANT WEATHER AND/OR OBSTRUCTIONS TO VISIBILITY. N/A MEANS
CURRENT SKY AND/OR WEATHER CONDITIONS ARE NOT AVAILABLE.

MNZ060>063-068>070-180800-
   Twin Cities Metro

CITY           SKY/WX    TMP DP  RH WIND       PRES   REMARKS
TWIN CITIES    CLEAR     59  46  62 S9        29.88F
ST PAUL        CLEAR     51  46  83 SE6       29.90F
CRYSTAL        CLEAR     58  42  55 S9        29.85F
BLAINE         CLEAR     59  46  63 S12       29.86F
LAKEVILLE      CLEAR     54  45  71 S5        29.89F
EDEN PRAIRIE   CLEAR     56  45  66 S10       29.86F
SOUTH ST PAUL  CLEAR     54  44  69 S3        29.89F
LAKE ELMO      FAIR      54  45  71 S8        29.90S
$$
MNZ001>005-007-008-013>017-022>024-027-028-180800-
   Northwest Minnesota

CITY           SKY/WX    TMP DP  RH WIND       PRES   REMARKS
BEMIDJI        CLEAR     55  39  56 S8        29.68F
HALLOCK        CLOUDY    52  36  54 S12       29.51S
ROSEAU         CLOUDY    57  43  58 S14       29.55S
WARROAD        CLOUDY    63  41  45 SW16G23   29.55S
CROOKSTON      CLOUDY    55  39  54 S16       29.60F
FOSSTON        PTCLDY    55  39  54 S14       29.66S
DETROIT LAKES  CLEAR     61  39  44 S13G18    29.71F
MOORHEAD       CLOUDY    54  43  66 S15       29.66F
PARK RAPIDS    CLEAR     50  39  66 SE7       29.72F
MAHNOMEN       FAIR      56  41  56 S16       29.66F
$$
MNZ006-009>011-018-025>026-180800-
   North Central Minnesota

CITY           SKY/WX    TMP DP  RH WIND       PRES   REMARKS
BAUDETTE       CLEAR     58  40  51 S14G22    29.59F
FLAG ISLAND    CLOUDY    55  43  62 S13       29.52S
INTL FALLS     CLEAR     57  38  48 S8        29.64F
WASKISH        CLEAR     61  39  44 S8        29.64F
BIG FORK       CLEAR     55  39  54 S7        29.70F
LONGVILLE      CLEAR     55  37  50 S6        29.74F
GRAND RAPIDS   CLEAR     52  39  61 S8        29.76F
CRANE LAKE     CLEAR     55  37  50 S7        29.71F
ORR            CLEAR     54  36  50 S9        29.69S
COOK           CLEAR     57  39  51 S9        29.73F
WALKER         FAIR      57  38  50 SW12G17   29.71F
$$
MNZ012-019>021-037-180800-
   Northeast Minnesota

CITY           SKY/WX    TMP DP  RH WIND       PRES   REMARKS
DULUTH         CLEAR     54  41  61 SW14      29.80F
ELY            CLEAR     55  37  50 SW6       29.75F
HIBBING        CLEAR     40  37  89 CALM      29.76S
EVELETH        CLEAR     52  34  50 SW5       29.78S
DULUTH HARBOR  CLEAR     52  46  82 SW5       29.80F
TWO HARBORS    CLEAR     41  36  81 CALM      29.79F
GRAND MARAIS     N/A     43  42  97 CALM      29.80F
G MARAIS ARPRT CLEAR     50  39  66 S6        29.82S
$$
MNZ029>031-032-039>041-046>048-054>057-064-180800-
   West Central Minnesota

CITY           SKY/WX    TMP DP  RH WIND       PRES   REMARKS
FERGUS FALLS   CLOUDY    54  41  62 S12       29.73F
WHEATON        CLOUDY    55  39  54 S12       29.73F
MORRIS         CLEAR     46  43  87 S9        29.75F
ALEXANDRIA     CLEAR     57  41  55 S14       29.79S
ELBOW LAKE     FAIR      52  41  68 S12       29.74F
WADENA         CLEAR     55  39  54 S8        29.74S
GLENWOOD       CLEAR     55  43  62 S16       29.79F
APPLETON       CLEAR     57  43  58 S9        29.76F
BENSON         CLEAR     52  43  71 SW9       29.80S
ORTONVILLE     CLEAR     50  41  71 N5        29.75F
MADISON        CLEAR     55  45  67 S8        29.78F
WILLMAR        FAIR      54  45  71 CALM      29.82F
$$
MNZ033>034-036-042>043-049>051-058-059-180800-
   Central Minnesota

CITY           SKY/WX    TMP DP  RH WIND       PRES   REMARKS
ST CLOUD       CLEAR     52  42  69 S9        29.82F
SAUK CENTRE    FAIR      56  42  59 S12G17    29.79F
PAYNESVILLE    CLEAR     57  44  61 S10G18    29.82F
AITKIN         CLEAR     50  39  66 S3        29.76F
PINE RIVER     CLEAR     48  37  66 S3        29.79S
BRAINERD       CLEAR     56  38  50 S12       29.78F
STAPLES        CLEAR     54  39  58 S10       29.76S
LONG PRAIRIE   FAIR      55  41  58 S10       29.79F
LITTLE FALLS   CLEAR     54  32  43 S6        29.79F
LITCHFIELD     CLEAR     54  45  71 CALM      29.85S
BUFFALO        CLEAR     55  44  65 S7        29.86F
MAPLE LAKE     CLEAR     55  46  72 S5        29.85F
HUTCHINSON     CLOUDY    51  45  78 S3        29.87S
$$
MNZ037-044-045-052-053-180800-
   East Central Minnesota

CITY           SKY/WX    TMP DP  RH WIND       PRES   REMARKS
PRINCETON      CLEAR     55  45  67 S8        29.84S
MORA           CLEAR     50  43  76 S5        29.85S
CAMBRIDGE      CLEAR     57  45  62 S8        29.84F
RUSH CITY      MOCLDY    54  44  69 S7        29.84F
MOOSE LAKE     CLEAR     50  41  71 CALM      29.80F
HINCKLEY       FAIR      50  43  76 S5        29.83F
CLOQUET        CLEAR     52  37  58 S6        29.80F
MCGREGOR       CLEAR     50  37  62 S6        29.78F
$$
MNZ071>073-080-081-089-090-097-098-180800-
   Southwest Minnesota

CITY           SKY/WX    TMP DP  RH WIND       PRES   REMARKS
MONTEVIDEO     CLEAR     54  45  71 SW8       29.80S
GRANITE FALLS  CLEAR     53  46  76 S9        29.83S
CANBY          CLEAR     62  44  51 SW18G28   29.80S
MARSHALL       CLEAR     57  44  62 SW16      29.82S
REDWOOD FALLS  CLEAR     55  44  66 S14       29.83F
OLIVIA         CLEAR     54  45  71 S9        29.83F
PIPESTONE      CLEAR     54  45  71 S8        29.85F
WORTHINGTON    CLEAR     55  44  66 S10       29.89F
JACKSON        CLEAR     48  43  81 S8        29.91F
TRACY          CLEAR     59  46  63 S17       29.84F
SLAYTON        CLEAR     55  38  54 S13       29.87F
$$
MNZ065>067-074>077-082>085-091>093-180800-
   South Central Minnesota

CITY           SKY/WX    TMP DP  RH WIND       PRES   REMARKS
MANKATO        CLEAR     50  44  80 S7        29.90F
NEW ULM        CLEAR     52  43  71 S7        29.87F
ST JAMES       CLEAR     52  45  76 S8        29.89F
FAIRMONT       CLEAR     49  44  83 S8        29.91F
GLENCOE        CLEAR     53  46  75 S5        29.86F
FARIBAULT      CLEAR     52  45  76 S5        29.92F
OWATONNA       CLEAR     52  45  76 S10       29.92F
WASECA         CLEAR     52  43  71 S8        29.93F
ALBERT LEA     CLEAR     55  46  71 S7        29.94F
$$
MNZ078>079-086>088-094>096-180800-
   Southeast Minnesota

CITY           SKY/WX    TMP DP  RH WIND       PRES   REMARKS
ROCHESTER      CLEAR     51  45  79 S14       29.96F
RED WING       CLEAR     57  43  58 SE3       29.91F
STANTON        CLEAR     54  45  71 S7        29.90S
DODGE CENTER   CLEAR     52  43  71 S10       29.94F
WINONA         CLEAR     59  45  58 SW6       29.97S
AUSTIN         CLEAR     48  43  81 S6        29.96F
PRESTON        CLEAR     52  43  73 S9G18     29.99S
$$
ABBREVIATIONS USED IN REMARKS
   TC - TEMPERATURES IN CELSIUS
  WCI - WIND CHILL INDEX
   HX - HEAT INDEX
  VSB - VISIBILITY
$$




USA.gov is the U.S. government's official web portal to all federal, state and local government web resources and services.